"Pseudo-MPEC" for P10Rx8a

Created 2019 Sep 26 23:07:38 UT using Find_Orb

Click here for an explanation of pseudo-MPECs

 
 Astrometry: 
     P10Rx8a  C2019 09 10Mrf#1MZo9?vl_2WI)]`2(ohn.\W5TwleJ'ZdF0V`BhcxqG8)Obq,F51
     P10Rx8a  C2019 09 10ZQh31Xg.$R3_2Q,BaF?O/qFVd)`LTF,,FN?1`-?e9,J]0E0At@mAF51
     P10Rx8a  C2019 09 10PWJj]%Astrometry6ie6=*redacted;G$7ACQMG1123VBUPKm3P7F51
     P10Rx8a  C2019 09 10p/N_tV$fZp-W!ZY2kkE!gTR*VWQi-h9pxj5UoUi?b!@vZRB%QCl,F51
     P10Rx8a  C2019 09 18Ov-'`npye@RU/a$d*C+=click#?IED!B7-r3IY;/'ecl_;oZ3,$nF51
     P10Rx8a  C2019 09 188uqWEpF8m-dZVwO@%:]hereqTxM#.6`f*RaUd,%@,39\mJZCD_7'F51
     P10Rx8a  C2019 09 180k%^nYl_sXCLsy6Z$VfvCZ36*m3(,K/ph?!F$tXGFRF62%FRUC2hF51
     P10Rx8a |C2019 09 264p5GxALa^CO8P9@%qgK#hiGv`.ktYu1Hs:EH,aSE'XqH]tjy7p::807
     P10Rx8a |C2019 09 26V_Pfor5?KGAMexplanation@[rhh3Agny^=]3-6QE,E9bGxl]=r*807

Station data:
(807) Cerro Tololo Observatory, La Serena  (S30.169136 W70.805900)  Chile.
(F51) Pan-STARRS 1, Haleakala  (N20.707235 W156.255910)  US/Hawaii.
   Observers N. Primak, A. Schultz, S. Watters, J. Thiel, T. Goggia. Measurer
   PS1 Science Consortium. 1.8-m Ritchey-Chrétien + CCD.

Orbital elements:  P10Rx8a
   Perihelion 2019 Sep 10.914976 +/- 0.0293 TT = 21:57:33 (JD 2458737.414976)
Epoch 2019 Sep 26.0 TT = JDT 2458752.5   Earth MOID: 0.4054   Ma: 0.0321
M   4.41478813 +/- 0.036            (J2000 ecliptic)          AutoNEOCP
n   0.29266033 +/- 0.00191          Peri.  289.81083 +/- 0.036
a   2.24677786 +/- 0.00978          Node    68.35542 +/- 0.021
e   0.4547462 +/- 0.00197           Incl.   24.10620 +/- 0.055
P   3.37                   H 19.8   G  0.15   U  8.5  
q 1.22506402 +/- 0.000915    Q 3.26849170 +/- 0.0189
From 9 observations 2019 Sept. 10-26; mean residual 0".08
Residuals in arcseconds: 
190910 F51  .03-  .09-    190910 F51  .11+  .02+    190918 F51  .06+  .07-    
190910 F51  .09+  .04+    190918 F51  .04-  .07+    190926 807  .15+  .06+    
190910 F51  .16-  .03+    190918 F51  .02-  .00     190926 807  .15-  .06-    

Ephemerides (geocentric):
Date (UTC) HH   RA              Dec         delta   r     elong  mag " sig PA
---- -- -- --  -------------   -----------  ------ ------ -----  --- ---- ---
2019 09 26 23  04 47 55.815   -35 52 45.70  .49718 1.2365 106.1 20.6 .159 128
2019 09 27 00  04 47 56.274   -35 51 58.55  .49706 1.2366 106.1 20.6 .164 128
2019 09 27 01  04 47 56.725   -35 51 11.36  .49694 1.2366 106.1 20.6 .170 127
2019 09 27 02  04 47 57.168   -35 50 24.13  .49683 1.2367 106.2 20.6 .175 127
2019 09 27 03  04 47 57.604   -35 49 36.85  .49671 1.2367 106.2 20.6 .181 127
2019 09 27 04  04 47 58.032   -35 48 49.52  .49659 1.2368 106.2 20.6 .186 127
2019 09 27 05  04 47 58.453   -35 48 02.15  .49648 1.2369 106.2 20.6 .192 127
2019 09 27 06  04 47 58.866   -35 47 14.74  .49636 1.2369 106.3 20.6 .197 127
2019 09 27 07  04 47 59.271   -35 46 27.28  .49624 1.2370 106.3 20.6 .203 126
2019 09 27 08  04 47 59.669   -35 45 39.77  .49613 1.2370 106.3 20.6 .209 126
2019 09 27 09  04 48 00.059   -35 44 52.22  .49601 1.2371 106.3 20.6 .214 126
2019 09 27 10  04 48 00.441   -35 44 04.63  .49589 1.2372 106.3 20.6 .220 126
2019 09 27 11  04 48 00.816   -35 43 16.98  .49578 1.2372 106.4 20.6 .226 126
2019 09 27 12  04 48 01.183   -35 42 29.30  .49566 1.2373 106.4 20.6 .232 126
2019 09 27 13  04 48 01.542   -35 41 41.56  .49554 1.2373 106.4 20.6 .238 126
2019 09 27 14  04 48 01.893   -35 40 53.78  .49543 1.2374 106.4 20.6 .244 126
2019 09 27 15  04 48 02.237   -35 40 05.96  .49531 1.2375 106.4 20.6 .250 126
2019 09 27 16  04 48 02.574   -35 39 18.09  .49519 1.2375 106.5 20.6 .256 125
2019 09 27 17  04 48 02.902   -35 38 30.17  .49508 1.2376 106.5 20.6 .263 125
2019 09 27 18  04 48 03.223   -35 37 42.20  .49496 1.2377 106.5 20.6 .269 125
2019 09 27 19  04 48 03.536   -35 36 54.19  .49484 1.2377 106.5 20.6 .275 125
2019 09 27 20  04 48 03.842   -35 36 06.13  .49472 1.2378 106.6 20.6 .282 125
2019 09 27 21  04 48 04.140   -35 35 18.03  .49461 1.2378 106.6 20.6 .288 125
2019 09 27 22  04 48 04.430   -35 34 29.88  .49449 1.2379 106.6 20.6 .295 125
2019 09 27 23  04 48 04.713   -35 33 41.68  .49437 1.2380 106.6 20.6 .301 125
2019 09 28 00  04 48 04.988   -35 32 53.43  .49426 1.2380 106.6 20.6 .308 125
2019 09 28 01  04 48 05.255   -35 32 05.14  .49414 1.2381 106.7 20.6 .314 125
2019 09 28 02  04 48 05.514   -35 31 16.80  .49402 1.2382 106.7 20.6 .321 125
2019 09 28 03  04 48 05.766   -35 30 28.41  .49390 1.2382 106.7 20.6 .328 125
2019 09 28 04  04 48 06.010   -35 29 39.97  .49379 1.2383 106.7 20.6 .335 125
2019 09 28 05  04 48 06.247   -35 28 51.49  .49367 1.2383 106.8 20.6 .342 125
2019 09 28 06  04 48 06.476   -35 28 02.96  .49355 1.2384 106.8 20.6 .349 125
2019 09 28 07  04 48 06.697   -35 27 14.38  .49343 1.2385 106.8 20.6 .356 125
2019 09 28 08  04 48 06.910   -35 26 25.76  .49332 1.2385 106.8 20.6 .363 125
2019 09 28 09  04 48 07.116   -35 25 37.08  .49320 1.2386 106.8 20.6 .370 125
2019 09 28 10  04 48 07.314   -35 24 48.36  .49308 1.2387 106.9 20.6 .377 125
2019 09 28 11  04 48 07.504   -35 23 59.59  .49296 1.2387 106.9 20.6 .384 125
2019 09 28 12  04 48 07.687   -35 23 10.77  .49285 1.2388 106.9 20.6 .392 125
2019 09 28 13  04 48 07.862   -35 22 21.90  .49273 1.2389 106.9 20.6 .399 124
2019 09 28 14  04 48 08.029   -35 21 32.98  .49261 1.2389 107.0 20.6 .406 124
2019 09 28 15  04 48 08.188   -35 20 44.02  .49249 1.2390 107.0 20.6 .414 124
2019 09 28 16  04 48 08.340   -35 19 55.00  .49237 1.2390 107.0 20.6 .421 124
2019 09 28 17  04 48 08.485   -35 19 05.94  .49226 1.2391 107.0 20.6 .429 124
2019 09 28 18  04 48 08.621   -35 18 16.83  .49214 1.2392 107.0 20.6 .437 124
2019 09 28 19  04 48 08.750   -35 17 27.67  .49202 1.2392 107.1 20.6 .444 124
2019 09 28 20  04 48 08.871   -35 16 38.46  .49190 1.2393 107.1 20.6 .452 124
2019 09 28 21  04 48 08.984   -35 15 49.20  .49178 1.2394 107.1 20.6 .460 124
2019 09 28 22  04 48 09.090   -35 14 59.89  .49167 1.2394 107.1 20.6 .468 124